User: anonymous   Login
Location: Muenchen
(48.1800°N, 11.5800°E)
Time: 18:19:05
(UTC+01:00)
Language:

Tiros 1 - Orbit

View from above orbital plane
View from above orbital plane
View from above satellite
View from above satellite

Ground track
Ground track

The orbit data is extracted from the following two-line orbital elements,

1 00029U 60002B   16038.50013013  .00000117  00000-0  48553-4 0  9998
2 00029  48.3791 259.9199 0024607 263.4216  96.3894 14.73999538983773
Epoch (UTC): 07 February 2016 12:00:11
Eccentricity: 0.0024607
inclination: 48.3791°
perigee height: 631 km
apogee height: 665 km
right ascension of ascending node: 259.9199°
argument of perigee: 263.4216°
revolutions per day: 14.73999538
mean anomaly at epoch: 96.3894°
orbit number at epoch: 98377

The dashed part of the orbit path shows where the satellite is in the earth's shadow,  

DLR